AAL813 CYHZ-CYQX

Flight info

Callsign AAL813
Flight time N/A
Altitude 37000
Route IGTAS DCT NOTOP DCT SILRO
Aircraft B38M/M-SDE1FGHILORVWXY/HB1

Departure

Time 2025-12-30 19:12
Airport Halifax / Stanfield International Airport (CYHZ)

Arrival

Time N/A
Airport Gander International Airport (CYQX)
Time Latitude Longitude Altitude Speed Heading
2025-12-30 19:00 44.88679 -63.51388 454 ft 0 kts 260°
2025-12-30 19:05 44.88682 -63.51370 454 ft 3 kts 260°
2025-12-30 19:05 44.88692 -63.51324 454 ft 2 kts 225°
2025-12-30 19:06 44.88706 -63.51310 454 ft 2 kts 198°
2025-12-30 19:07 44.88724 -63.51308 454 ft 0 kts 169°
2025-12-30 19:08 44.88691 -63.51279 454 ft 11 kts 118°
2025-12-30 19:09 44.88726 -63.50959 454 ft 19 kts 64°
2025-12-30 19:09 44.88950 -63.50700 453 ft 23 kts 35°
2025-12-30 19:10 44.88919 -63.50430 453 ft 16 kts 156°
2025-12-30 19:11 44.87240 -63.51998 950 ft 161 kts 220°
2025-12-30 19:11 44.85555 -63.53856 3039 ft 164 kts 224°
2025-12-30 19:12 44.83468 -63.56132 4219 ft 208 kts 221°
2025-12-30 19:12 44.82257 -63.57385 4942 ft 223 kts 217°
2025-12-30 19:12 44.79043 -63.57523 6761 ft 263 kts 162°
2025-12-30 19:13 44.76896 -63.53012 8605 ft 318 kts 101°
2025-12-30 19:13 44.78533 -63.47191 10173 ft 341 kts 43°
2025-12-30 19:14 44.83489 -63.39013 11666 ft 389 kts 51°
2025-12-30 19:15 44.86876 -63.32818 12964 ft 407 kts 51°
2025-12-30 19:15 44.88617 -63.29622 13582 ft 414 kts 51°
2025-12-30 19:15 44.92174 -63.23117 14923 ft 423 kts 51°
2025-12-30 19:16 44.95812 -63.16460 16295 ft 433 kts 52°
2025-12-30 19:16 44.99524 -63.09657 17616 ft 442 kts 52°
2025-12-30 19:17 45.03300 -63.02727 18783 ft 448 kts 52°
2025-12-30 19:17 45.07123 -62.95680 19930 ft 455 kts 54°
2025-12-30 19:18 45.12005 -62.84035 21573 ft 464 kts 62°
2025-12-30 19:19 45.15248 -62.76066 22643 ft 470 kts 62°
2025-12-30 19:19 45.16883 -62.72040 23078 ft 474 kts 62°
2025-12-30 19:19 45.20165 -62.63938 23885 ft 480 kts 62°
2025-12-30 19:20 45.23510 -62.55654 24664 ft 488 kts 62°
2025-12-30 19:20 45.26900 -62.47238 25443 ft 495 kts 62°
2025-12-30 19:22 45.40851 -62.12326 28296 ft 521 kts 63°
2025-12-30 19:24 45.56883 -61.76850 30623 ft 541 kts 57°
2025-12-30 19:26 45.73853 -61.40917 33136 ft 544 kts 58°
2025-12-30 19:29 45.92632 -61.00618 35695 ft 538 kts 59°
2025-12-30 19:30 46.07021 -60.69344 36163 ft 534 kts 59°
2025-12-30 19:32 46.23301 -60.33533 36200 ft 533 kts 60°
2025-12-30 19:35 46.41472 -59.93014 36199 ft 533 kts 60°
2025-12-30 19:36 46.55491 -59.61347 36199 ft 532 kts 61°
2025-12-30 19:38 46.71361 -59.25054 36213 ft 530 kts 62°
2025-12-30 19:40 46.87031 -58.88752 36231 ft 528 kts 62°
2025-12-30 19:42 47.03197 -58.52948 36238 ft 532 kts 53°
2025-12-30 19:44 47.22438 -58.20053 36246 ft 530 kts 53°
2025-12-30 19:46 47.41512 -57.87081 36251 ft 529 kts 54°
2025-12-30 19:48 47.60468 -57.53909 36266 ft 526 kts 54°
2025-12-30 19:50 47.78440 -57.22080 36279 ft 524 kts 55°
2025-12-30 19:53 47.99420 -56.84442 36260 ft 525 kts 56°
2025-12-30 19:55 48.17916 -56.50816 36240 ft 521 kts 56°
2025-12-30 19:57 48.36172 -56.17212 36258 ft 517 kts 56°
2025-12-30 19:59 48.53675 -55.83324 33717 ft 503 kts 61°
2025-12-30 20:00 48.67809 -55.53577 28469 ft 493 kts 63°
2025-12-30 20:02 48.80971 -55.25598 22647 ft 436 kts 64°
2025-12-30 20:03 48.85788 -55.19757 20839 ft 458 kts 33°
2025-12-30 20:03 48.88637 -55.17632 19944 ft 455 kts 32°
2025-12-30 20:04 48.97038 -55.11260 17365 ft 445 kts 32°
2025-12-30 20:04 49.02515 -55.07027 15522 ft 438 kts 32°
2025-12-30 20:05 49.07893 -55.02840 13779 ft 431 kts 32°
2025-12-30 20:05 49.10544 -55.00761 12927 ft 425 kts 35°
2025-12-30 20:05 49.13994 -54.94522 11635 ft 353 kts 86°
2025-12-30 20:06 49.13234 -54.88389 10866 ft 266 kts 141°
2025-12-30 20:07 49.08705 -54.88247 9844 ft 226 kts 202°
2025-12-30 20:07 49.06017 -54.90606 8889 ft 222 kts 202°
2025-12-30 20:08 49.03306 -54.92834 7705 ft 216 kts 190°
2025-12-30 20:08 49.00626 -54.91415 6616 ft 229 kts 135°
2025-12-30 20:09 49.00541 -54.86102 5274 ft 284 kts 83°
2025-12-30 20:09 49.01193 -54.83294 4503 ft 278 kts 83°
2025-12-30 20:09 49.01710 -54.78137 3589 ft 204 kts 117°
2025-12-30 20:10 49.00287 -54.73247 2898 ft 154 kts 141°
2025-12-30 20:10 48.99611 -54.72040 2646 ft 143 kts 149°
2025-12-30 20:11 48.97980 -54.68762 2081 ft 109 kts 141°
2025-12-30 20:12 48.97375 -54.66609 1811 ft 121 kts 118°